Regional Weather Roundup
Issued by NWS Newport/Morehead, NC

Home | Current Version | Previous Version | Text Only | Print | Product List | Glossary On
Versions: 1 2 3 4 5 6 7 8 9 10 11 12 13 14 15 16 17 18 19 20 21 22 23 24 25 26 27 28 29 30 31 32 33 34 35 36 37 38 39 40 41 42 43 44 45 46 47 48 49 50
000
ASUS42 KMHX 300125
RWRMHX
WEATHER ROUNDUP FOR EASTERN NORTH CAROLINA
NATIONAL WEATHER SERVICE NEWPORT/MOREHEAD CITY NC
900 PM EDT WED MAR 29 2017

NOTE: "FAIR" INDICATES FEW OR NO CLOUDS BELOW 12,000 FEET
WITH NO SIGNIFICANT WEATHER AND/OR OBSTRUCTIONS TO VISIBILITY

NCZ015>017-031-032-045>047-102-103-300200-
NORTH COAST

CITY           SKY/WX    TMP DP  RH WIND       PRES   REMARKS
EDENTON        CLEAR     52  48  86 E5        30.16R
ELIZABETH CITY CLEAR     49  45  86 E7        30.16R
KITTY HAWK     NOT AVBL
MANTEO         CLEAR     48  46  91 E7        30.17R

$$

NCZ045>047-081-094-103-104-300200-
CENTRAL COAST

CITY           SKY/WX    TMP DP  RH WIND       PRES   REMARKS
FRISCO         CLEAR     52  47  83 VRB6      30.15R

$$

NCZ095-097-098-100-101-300200-
SOUTHERN COAST

CITY           SKY/WX    TMP DP  RH WIND       PRES   REMARKS
BEAUFORT       CLEAR     56  53  90 NE8       30.13R
CEDAR ISLAND   NOT AVBL
JACKSONVILLE   CLEAR     62  54  74 E8        30.10R
PINEY ISLAND   CLEAR    N/A N/A N/A NE17      30.14R
WILMINGTON     CLEAR     60  56  86 E7        30.11R


$$

NCZ011>013-027>030-043-044-078>080-089-090>093-098-300200-
COASTAL PLAIN

CITY           SKY/WX    TMP DP  RH WIND       PRES   REMARKS
AHOSKIE          N/A     57  51  81 SE3       30.14R
CLINTON        CLEAR     64  56  75 CALM      30.09R
ELIZABETHTOWN  PTCLDY    66  57  71 SE3       30.09R
GOLDSBORO      CLEAR     60  57  90 E5        30.09R
GREENVILLE     CLEAR     59  54  82 E8        30.14R
HAVELOCK       CLEAR     56  50  80 E7        30.09F
KENANSVILLE    CLEAR     57  54  88 CALM      30.10R
KINSTON        CLEAR     63  54  72 E5        30.12R
NEW BERN       CLEAR     55  52  89 E8        30.14R
RICHLANDS      CLEAR     60  54  80 E5        30.11R
ROCKY MOUNT    CLEAR     60  55  83 CALM      30.10R
WASHINGTON     CLEAR     56  50  82 E7        30.13S
WHITEVILLE     PTCLDY    65  56  73 E8        30.09R

$$

AMZ130-135-150-152-154-156-158-170-250-252-270-ANZ085-086-088-633-658-670-300200-
MARINE OBSERVATIONS

STATION/POSITION TIME  TEMP    WIND        PRES    WAVE   SWELL
                       AIR SEA DIR/SP/G            HT/PER HT/PER
                 (UTC) (F)     (DEG/KT/KT) (MB)    (FT/S) (FT/S)
CHESAPEAKE LIGHT NOT AVBL
64 E VA BEACH    0050   50 50   50/  6/  8 1021.0    5/ 7   5/ 7
DUCK             0100   49 51   70/  9/ 10 1020.9
2 E DUCK         0100      51                N/A     4/ 6   2/11
OREGON INLET     0100   49 57   30/  8/  9 1021.1
13E OREGON INLT  0048      50                N/A     4/ 7   5/ 7
HATTERAS CG      0100   53 62   40/  9/ 14 1020.7
DIAMOND BUOY     0050   59 74   30/ 21/ 27 1019.6    7/ 8   3/15
CAPE LOOKOUT     0100   60      50/ 18/ 20 1020.0
BEAUFORT LAB     0100   56 63   50/  7/  9 1019.3
30 SE NEW RVR IN 0108   61      80/ 16/ 19 1019.4
30 SE NEW RVR IN 0113      64                N/A     6/11   2/11
27 SE WRIGHTSVLE 0108   65 74   90/ 16/ 23 1018.2
5 SE WRIGHTSVLE  0108   61 59   90/ 12/ 17 1019.1
225 S CAPE HAT   0050   70 72   50/ 17/ 19 1016.6    5/10   5/10
41 SE CHARLESTON 0050   71 68   80/ 10/ 12 1016.8    4/10   3/10

$$




USA.gov is the U.S. government's official web portal to all federal, state and local government web resources and services.